Tracking 19564 objects as of 19-Mar-2019
HD Live streaming from Space Station
objects crossing your sky now

SL-3 R/B

Track SL-3 R/B now!
10-day predictions
SL-3 R/B is classified as:


NORAD ID: 12465
Int'l Code: 1981-046B
Perigee: 506.5 km
Apogee: 553.6 km
Inclination: 81.2 °
Period: 95.1 minutes
Semi major axis: 6901 km
RCS: 5.7192 m2 (large)
Launch date: May 19, 1981
Source: Commonwealth of Independent States (former USSR) (CIS)
Launch site: PLESETSK MISSILE AND SPACE COMPLEX (PKMTR)

Note: This is a ROCKET BODY
aabbcc
Your satellite tracking list
Your tracking list is empty




NASA's NSSDC Master Catalog

Two Line Element Set (TLE):
1 12465U 81046B   19077.60119915 +.00000305 +00000-0 +15005-4 0  9996
2 12465 081.2461 009.5993 0034076 345.6512 014.3744 15.14368508051137
Source of the keplerian elements: AFSPC